Location: Sutherland Falls
(44.8000°S, 167.7333°E)
Time: 08:05:35
(UTC+00:00)

Daily predictions for brighter satellites

Satellite Brightness Start Highest point End
(mag) Time Altitude Azimuth Time Altitude Azimuth Time Altitude Azimuth
USA 267 4.4 13:25:54 10° SE 13:30:36 38° S 13:30:36 38° S
Cosmos 2082 Rocket 4.3 13:43:06 10° SSW 13:45:35 23° S 13:45:35 23° S
Cosmos 2278 Rocket 4.0 14:05:11 28° SE 14:05:11 28° SE 14:07:47 10° SSE
ATLAS CENTAUR R/B 4.2 13:58:10 10° SW 14:09:40 47° SSE 14:11:46 36° ESE
ADEOS II 4.5 14:22:54 16° SSW 14:22:54 16° SSW 14:23:52 10° SSW
Cosmos 1943 Rocket 4.0 14:20:43 25° ESE 14:20:43 25° ESE 14:23:45 10° SE
CZ-2C R/B 4.2 14:48:41 26° SSE 14:48:41 26° SSE 14:51:05 10° S
ARIANE 5 R/B 4.1 14:52:57 29° E 14:53:51 31° ESE 14:58:20 10° S
ALOS 4.0 15:16:13 26° S 15:16:13 26° S 15:18:18 10° S
ATLAS 2AS CENTAUR R/B 4.3 15:14:46 18° NE 15:17:02 22° ENE 15:21:53 10° ESE
Lacrosse 5 4.0 15:18:54 17° SSW 15:21:23 23° SSE 15:25:30 10° ESE
NOSS 3-4 (A) 4.0 15:27:56 65° NW 15:29:24 83° SW 15:37:27 10° SE
NOSS 3-4 (C) 4.0 15:28:01 65° NW 15:29:30 84° SW 15:37:32 10° SE
Helios 1B rocket 4.4 15:39:49 22° SSW 15:39:49 22° SSW 15:41:24 10° SSW
CZ-2D R/B 4.4 15:38:27 47° E 15:38:46 48° ESE 15:43:02 10° S
SL-16 R/B 2.9 15:36:48 10° SSE 15:43:01 62° ENE 15:45:17 39° NNE
Cosmos 494 Rocket 4.0 15:44:46 72° S 15:44:46 72° S 15:49:31 10° SSE
RESURS DK-1 4.0 15:45:53 28° ENE 15:46:09 29° ENE 15:49:45 10° SE
Cosmos 1331 Rocket 4.1 15:41:07 10° SSW 15:46:26 73° ESE 15:49:42 23° NNE
Cosmos 1328 Rocket 4.3 15:42:08 10° S 15:45:24 48° S 15:45:24 48° S
Cosmos 2278 Rocket 3.8 15:47:01 22° SW 15:47:01 22° SW 15:51:10 10° S
SeaSat 1 4.2 15:44:17 10° S 15:47:26 21° SW 15:47:26 21° SW
Cosmos 1605 Rocket 4.0 15:43:34 10° SSW 15:49:35 58° W 15:49:35 58° W
SL-4 R/B 3.0 15:52:19 41° E 15:52:19 41° E 15:55:07 10° ESE
UNK 3.7 15:51:47 10° SSE 15:56:28 75° ENE 15:56:43 73° NE
Cosmos 1110 Rocket 3.9 15:51:42 10° SSW 15:57:07 84° WNW 15:58:40 48° NNE
ATLAS 3B R/B 4.4 15:53:48 10° SSW 15:59:34 29° SSE 16:05:06 10° E
Cosmos 389 Rocket 3.7 16:01:03 40° SE 16:01:03 40° SE 16:03:36 10° SSE
Cosmos 1048 Rocket 4.1 16:01:01 57° WSW 16:01:01 57° WSW 16:06:00 10° SSE
Cosmos 2369 Rocket 2.3 16:00:27 48° N 16:02:00 72° ENE 16:07:40 10° SSE
IRS-1C 4.2 16:02:42 56° WSW 16:02:42 56° WSW 16:07:32 10° SSW
Cosmos 1943 Rocket 2.7 16:02:14 43° WSW 16:02:22 43° WSW 16:07:49 10° SSE
ISS -2.4 16:06:54 39° SSE 16:06:54 39° SSE 16:09:20 10° SE
Meteor 1-28 Rocket 3.6 16:02:41 10° SSE 16:05:52 60° SSE 16:05:52 60° SSE
Cosmos 1515 Rocket 3.9 16:03:11 10° S 16:07:36 64° E 16:10:22 22° NNE
Spot 4 Rocket 4.1 16:09:40 10° NNE 16:14:50 79° ESE 16:20:04 10° SSW
BREEZE-M DEB (TANK) 4.4 16:14:02 23° SW 16:16:37 43° S 16:29:53 10° E
Cosmos 1315 Rocket 2.9 16:18:05 60° SW 16:18:05 60° SW 16:21:40 10° S
H-2A R/B 3.5 16:16:56 10° NNE 16:20:37 51° ESE 16:24:24 10° S
Cosmos 2297 4.1 16:19:37 43° W 16:20:42 48° WSW 16:26:19 10° SSE
Meteor 1-27 Rocket 3.7 16:15:24 10° SSW 16:20:53 59° W 16:23:04 35° NNW
Cosmos 2123 Rocket 4.5 16:17:51 10° N 16:24:05 62° E 16:30:24 10° SSE
CZ-2C R/B 4.3 16:28:02 14° SW 16:28:02 14° SW 16:28:56 10° SW
SWAS 4.4 16:21:15 10° SSW 16:25:39 88° WNW 16:29:58 10° NNE
Cosmos 2173 Rocket 3.9 16:20:01 10° S 16:26:28 83° W 16:32:46 10° N
CZ-4B R/B 4.5 16:22:46 10° NE 16:27:46 50° ESE 16:32:43 10° S
SL-19 R/B 4.4 16:24:10 10° S 16:28:23 55° WSW 16:28:27 55° WSW
ATLAS CENTAUR R/B 4.4 16:25:01 10° SW 16:28:26 21° WSW 16:28:26 21° WSW
ARIANE 5 R/B 3.1 16:33:15 36° W 16:33:15 36° W 16:37:34 10° SSW
CZ-2C R/B 3.5 16:32:42 14° N 16:33:08 14° NNE 16:35:15 10° NE
Cosmos 1743 Rocket 4.1 16:29:32 13° N 16:33:15 59° E 16:37:37 10° SSE
Cosmos 1378 3.2 16:32:36 10° S 16:36:21 77° E 16:40:02 10° NNE
Meteor 1-29 3.2 16:40:28 47° WSW 16:40:28 47° WSW 16:43:14 10° SSW
YAOGAN 6 3.1 16:41:57 39° WSW 16:41:57 39° WSW 16:44:41 10° SSW
Cosmos 1500 Rocket 3.6 16:38:17 17° N 16:41:40 83° E 16:46:11 10° S
Cosmos 1602 4.4 16:42:56 35° WSW 16:42:56 35° WSW 16:46:29 10° S
PSLV R/B 3.4 16:39:25 10° NNE 16:43:39 90° SE 16:47:56 10° SSW
Meteor 1-25 Rocket 4.3 16:40:27 24° NNW 16:43:57 62° WSW 16:49:42 10° S
Helios 1A 3.0 16:40:51 10° SSE 16:45:07 79° ENE 16:48:35 15° N
OE (NEXTSAT) 4.1 16:44:30 55° WSW 16:45:07 79° S 16:48:23 10° E
SJ-6F 4.5 16:42:20 10° NNE 16:46:28 80° ESE 16:50:37 10° S
Meteor 1-20 Rocket 4.4 16:47:36 27° NW 16:50:17 48° WSW 16:55:42 10° S
Sich 1 3.7 16:46:16 10° N 16:50:29 55° E 16:54:48 10° SSE
Cosmos 1833 4.1 16:45:10 10° SSW 16:50:51 85° WNW 16:56:30 10° NNE
Cosmos 1484 Rocket 4.0 16:52:38 24° WSW 16:52:38 24° WSW 16:54:54 10° SW
Cosmos 1666 3.0 16:53:48 36° WNW 16:54:44 44° WSW 16:58:23 10° S
Cosmos 1263 4.2 16:55:07 38° NW 16:56:03 58° W 16:59:05 10° S
USA 267 4.4 16:50:01 10° E 16:56:03 40° SSE 17:02:06 10° SW
COSMOS 2487 3.7 16:53:51 10° S 16:56:39 36° ESE 16:59:25 10° NE
Cosmos 2100 Rocket 4.3 16:53:10 10° SSW 16:59:09 44° W 17:05:01 10° NNW
Envisat 3.5 16:55:49 10° NNW 17:00:34 38° W 17:05:23 10° SSW
SJ-12 3.9 16:56:38 10° NNE 17:00:48 88° ESE 17:05:02 10° SSW
Cosmos 2263 4.4 16:59:52 22° NW 17:03:28 54° WSW 17:09:02 10° SSE
Cosmos 2061 Rocket 4.0 16:57:16 10° S 17:03:45 79° W 17:10:05 10° N
Cosmos 1818 4.0 16:59:13 10° SW 17:04:12 38° WNW 17:09:11 10° N
Lacrosse 5 2.7 17:00:18 10° SW 17:05:23 52° SE 17:10:24 10° ENE
GPS 2-04 Rocket1 4.4 17:06:11 17° NNW 17:06:57 18° NNW 17:09:35 10° NNE
ATLAS 2AS CENTAUR R/B 2.6 17:02:13 18° NW 17:07:11 75° SW 17:13:54 10° SE
SL-08 R/B 4.4 17:01:12 10° SSW 17:07:30 73° W 17:13:38 10° N
Cosmos 2016 Rocket 4.0 17:02:04 10° SSW 17:08:13 62° W 17:14:23 10° N
Cosmos 1408 Rocket 4.4 17:09:20 22° WNW 17:11:14 30° WSW 17:15:13 10° S
Cosmos 1656 Rocket 4.3 17:10:30 20° WNW 17:13:49 38° SW 17:18:55 10° SSE
CZ-4C R/B 2.9 17:15:01 10° SSW 17:20:33 49° SE 17:25:04 10° ENE
GP-B 3.4 17:17:00 10° S 17:21:32 72° E 17:26:00 10° N
BREEZE-M DEB (TANK) 2.8 17:20:35 17° W 17:22:31 37° SSW 17:24:30 10° SE
CZ-2C R/B 3.6 17:18:18 10° NNW 17:22:47 31° W 17:27:10 10° SSW
RESURS DK-1 3.4 17:21:44 18° WNW 17:24:03 29° SW 17:27:45 10° S
Meteor 2-4 Rocket 3.9 17:19:26 10° SSW 17:25:18 61° W 17:31:10 10° N
Okean 1 4.5 17:22:45 10° SW 17:26:00 23° W 17:29:14 10° NW
SL-16 R/B 3.6 17:21:09 10° S 17:26:08 26° WSW 17:30:23 13° WNW
Cosmos 1743 4.4 17:24:35 10° NNE 17:28:13 38° E 17:31:53 10° SSE
Cosmos 1536 4.4 17:25:51 10° NNE 17:29:38 39° E 17:33:26 10° SSE
SL-4 R/B 2.7 17:27:43 14° W 17:30:49 40° SSW 17:34:24 10° SE
Cosmos 1867 3.7 17:25:49 11° NW 17:31:01 63° SW 17:36:25 10° SSE
Cosmos 1544 4.2 17:29:37 14° WNW 17:31:56 24° WSW 17:35:00 10° SSW
CZ-2C R/B 3.6 17:27:45 10° SSE 17:32:57 50° E 17:38:00 10° N
Meteor 1-5 Rocket 4.3 17:28:23 10° NNW 17:33:43 57° WSW 17:39:18 10° S
NOAA 12 4.3 17:29:51 10° NNE 17:35:14 83° ESE 17:40:40 10° SSW
Cosmos 2228 Rocket 3.4 17:35:35 10° SSW 17:40:04 47° W 17:44:30 10° NNW
Meteor 1-14 Rocket 4.3 17:34:57 10° NNW 17:40:30 62° WSW 17:46:05 10° S
CZ-2C R/B 4.1 17:39:01 10° NW 17:42:10 22° W 17:45:21 10° SW
ISS -2.0 17:40:14 10° WSW 17:43:09 26° S 17:46:06 10° SE
Meteor 1-4 Rocket 4.4 17:41:11 10° NNE 17:44:35 37° E 17:48:01 10° SSE
Cosmos 2369 Rocket 3.6 17:42:16 10° W 17:46:36 22° SW 17:50:57 10° S
Cosmos 1943 Rocket 4.4 17:47:42 10° SW 17:47:45 10° SW 17:47:50 10° SSW
Cosmos 1805 Rocket 4.5 17:46:09 10° NW 17:49:58 29° WSW 17:53:51 10° SSW
ATLAS 3B R/B 2.5 17:44:19 10° SW 17:50:57 78° NW 17:57:17 10° NNE
Cosmos 2233 Rocket 4.3 17:46:25 10° SSW 17:52:24 47° W 17:58:23 10° NNW
SMAP 3.9 17:50:30 10° NNE 17:55:06 59° ESE 17:59:46 10° S
Meteor 1-11 Rocket 4.0 17:49:33 10° N 17:55:20 79° E 18:01:04 10° SSE
Cosmos 614 Rocket 4.3 17:52:19 10° NW 17:57:22 49° WSW 18:02:32 10° SSE
